^^
B2 Weather Station Historical Data
Daily Summary for October 21, 2019 Units:  English    Metric   Both
Daily Weekly Monthly Yearly Custom
  High: Low: Average:
Temperature: 67.5 °F 49.2 °F 57.8 °F
Dew Point: 61.6 °F 41.3 °F 51.8 °F
Humidity: 96% 54% 82%
Wind Speed: 38mph 0mph 12.5mph
Wind Gust: 30mph - -
Wind- - SSE
Pressure: 29.85 in 29.42 in -
Precipitation: 0.02 in    
Historical Graphs
 
 
Tabular Data for October 21, 2019
Time Temperature Dew Point Pressure Wind Wind Speed Wind Gust Humidity Rainfall Rate (Hourly) solar
00:00 49.2 °F 48.1 °F 29.85 in East 3.5 mph 0.7 mph 96% 0 in 0.00 W/m2
00:05 49.3 °F 48.2 °F 29.85 in ENE 3.5 mph 1.1 mph 96% 0 in 0.00 W/m2
00:10 49.3 °F 48.2 °F 29.85 in ENE 3.5 mph 0.7 mph 96% 0 in 0.00 W/m2
00:15 49.4 °F 48.3 °F 29.85 in Calm     96% 0 in 0.00 W/m2
00:20 49.4 °F 48.3 °F 29.84 in ENE 3.5 mph 0.1 mph 96% 0 in 0.00 W/m2
00:25 49.5 °F 48.4 °F 29.83 in East 4.6 mph 2.1 mph 96% 0 in 0.00 W/m2
00:30 49.6 °F 48.5 °F 29.83 in ESE 4.6 mph 1.5 mph 96% 0 in 0.00 W/m2
00:35 49.6 °F 48.5 °F 29.83 in ENE 3 mph 0.1 mph 96% 0 in 0.00 W/m2
00:40 49.7 °F 48.6 °F 29.82 in ENE 6.9 mph 2.6 mph 96% 0 in 0.00 W/m2
00:45 49.7 °F 48.6 °F 29.81 in East 6.9 mph 3.2 mph 96% 0 in 0.00 W/m2
00:50 49.8 °F 48.7 °F 29.81 in ENE 5 mph 2.3 mph 96% 0 in 0.00 W/m2
00:55 49.8 °F 48.7 °F 29.80 in ENE 5.8 mph 2.9 mph 96% 0 in 0.00 W/m2
01:00 49.9 °F 48.8 °F 29.80 in ENE 5 mph 1.3 mph 96% 0 in 0.00 W/m2
01:05 49.9 °F 48.8 °F 29.80 in East 3.5 mph 1.2 mph 96% 0 in 0.00 W/m2
01:10 50.1 °F 49 °F 29.80 in Calm     96% 0 in 0.00 W/m2
01:15 50.3 °F 49.2 °F 29.80 in Calm     96% 0 in 0.00 W/m2
01:20 50.5 °F 49.4 °F 29.81 in Calm     96% 0 in 0.00 W/m2
01:25 50.7 °F 49.6 °F 29.80 in East 3.5 mph 0.6 mph 96% 0 in 0.00 W/m2
01:30 50.8 °F 49.7 °F 29.81 in Calm     96% 0 in 0.00 W/m2
01:35 51 °F 49.9 °F 29.81 in Calm     96% 0 in 0.00 W/m2
01:40 51.1 °F 50 °F 29.80 in Calm     96% 0 in 0.00 W/m2
01:45 51.3 °F 50.2 °F 29.81 in Calm     96% 0 in 0.00 W/m2
01:50 51.5 °F 50.4 °F 29.81 in Calm     96% 0 in 0.00 W/m2
01:55 51.6 °F 50.5 °F 29.81 in Calm     96% 0 in 0.00 W/m2
02:00 51.8 °F 50.7 °F 29.80 in Calm     96% 0 in 0.00 W/m2
02:05 51.8 °F 50.7 °F 29.80 in Calm     96% 0 in 0.00 W/m2
02:10 51.9 °F 50.8 °F 29.79 in Calm     96% 0 in 0.00 W/m2
02:15 51.9 °F 50.8 °F 29.80 in Calm     96% 0 in 0.00 W/m2
02:20 52.1 °F 51 °F 29.80 in Calm     96% 0 in 0.00 W/m2
02:25 52.2 °F 51.1 °F 29.80 in Calm     96% 0 in 0.00 W/m2
02:30 52.3 °F 51.2 °F 29.80 in Calm     96% 0 in 0.00 W/m2
02:35 52.6 °F 51.5 °F 29.79 in Calm     96% 0 in 0.00 W/m2
02:40 52.9 °F 51.8 °F 29.79 in Calm     96% 0 in 0.00 W/m2
02:45 53.1 °F 52 °F 29.79 in ESE 3.5 mph 0.3 mph 96% 0 in 0.00 W/m2
02:50 53.3 °F 51.9 °F 29.78 in Calm     95% 0 in 0.00 W/m2
02:55 53.4 °F 52.3 °F 29.78 in ESE 2.3 mph 0.4 mph 96% 0 in 0.00 W/m2
03:00 53.6 °F 52.2 °F 29.78 in ESE 3.5 mph 0.2 mph 95% 0 in 0.00 W/m2
03:05 53.7 °F 52.3 °F 29.78 in ESE 6.9 mph 3.5 mph 95% 0 in 0.00 W/m2
03:10 53.9 °F 52.5 °F 29.78 in ESE 7 mph 2.2 mph 95% 0 in 0.00 W/m2
03:15 54 °F 52.3 °F 29.77 in ESE 3.5 mph 1.6 mph 94% 0 in 0.00 W/m2
03:20 54.2 °F 52.5 °F 29.78 in ESE 3.5 mph 1.7 mph 94% 0 in 0.00 W/m2
03:25 54.3 °F 52.3 °F 29.77 in SE 3.5 mph 0.5 mph 93% 0 in 0.00 W/m2
03:30 54.4 °F 52.4 °F 29.77 in ESE 3.5 mph 1.5 mph 93% 0 in 0.00 W/m2
03:35 54.5 °F 52.5 °F 29.76 in ESE 6.9 mph 2.3 mph 93% 0 in 0.00 W/m2
03:40 54.6 °F 52.3 °F 29.76 in ESE 4.6 mph 0.9 mph 92% 0 in 0.00 W/m2
03:45 54.6 °F 52.3 °F 29.75 in ESE 1 mph   92% 0 in 0.00 W/m2
03:50 54.7 °F 52.1 °F 29.74 in East 5.8 mph 1.7 mph 91% 0 in 0.00 W/m2
03:55 54.6 °F 52 °F 29.74 in East 4.6 mph 1.3 mph 91% 0 in 0.00 W/m2
04:00 54.7 °F 52.1 °F 29.73 in ESE 3.5 mph 0.4 mph 91% 0 in 0.00 W/m2
04:05 54.8 °F 52.2 °F 29.73 in ESE 4.6 mph 0.7 mph 91% 0 in 0.00 W/m2
04:10 54.8 °F 51.9 °F 29.72 in ESE 4.6 mph 1.4 mph 90% 0 in 0.00 W/m2
04:15 54.8 °F 51.9 °F 29.72 in ESE 6.9 mph 2.3 mph 90% 0 in 0.00 W/m2
04:20 55 °F 52.1 °F 29.72 in East 3.5 mph 0.5 mph 90% 0 in 0.00 W/m2
04:25 55 °F 52.1 °F 29.72 in SE 3.5 mph 0.7 mph 90% 0 in 0.00 W/m2
04:30 55.1 °F 52.2 °F 29.72 in ENE 4.6 mph 1.6 mph 90% 0 in 0.00 W/m2
04:35 55.1 °F 52.2 °F 29.72 in ESE 3.5 mph 3 mph 90% 0 in 0.00 W/m2
04:40 55.3 °F 52.1 °F 29.72 in ESE 4.6 mph 2.6 mph 89% 0 in 0.00 W/m2
04:45 55.3 °F 52.1 °F 29.72 in ESE 5.8 mph 2.3 mph 89% 0 in 0.00 W/m2
04:50 55.3 °F 51.8 °F 29.71 in ESE 6.9 mph 2.9 mph 88% 0 in 0.00 W/m2
04:55 55.2 °F 51.7 °F 29.70 in SE 4.6 mph 2.7 mph 88% 0 in 0.00 W/m2
05:00 55.2 °F 51.7 °F 29.70 in ESE 4.6 mph 2 mph 88% 0 in 0.00 W/m2
05:05 55.3 °F 51.8 °F 29.70 in SE 1.2 mph   88% 0 in 0.00 W/m2
05:10 55.4 °F 51.9 °F 29.70 in East 5.8 mph 3.5 mph 88% 0 in 0.00 W/m2
05:15 55.5 °F 52 °F 29.69 in ESE 5.8 mph 2.1 mph 88% 0 in 0.00 W/m2
05:20 55.5 °F 52 °F 29.69 in SE 3.5 mph 1.8 mph 88% 0 in 0.00 W/m2
05:25 55.5 °F 52 °F 29.69 in ESE 8.1 mph 4.3 mph 88% 0 in 0.00 W/m2
05:30 55.7 °F 52.2 °F 29.69 in SE 9 mph 3.6 mph 88% 0 in 0.00 W/m2
05:35 55.8 °F 52.3 °F 29.69 in ESE 6.9 mph 3.9 mph 88% 0 in 0.00 W/m2
05:40 55.9 °F 52.4 °F 29.68 in ESE 4.6 mph 0.6 mph 88% 0 in 0.00 W/m2
05:45 55.9 °F 52.4 °F 29.68 in SE 3.5 mph 1.9 mph 88% 0 in 0.00 W/m2
05:50 55.9 °F 52.4 °F 29.67 in SE 3.5 mph 0.7 mph 88% 0 in 0.00 W/m2
05:55 55.9 °F 52.4 °F 29.66 in ESE 4 mph 1 mph 88% 0 in 0.00 W/m2
06:00 55.9 °F 52.4 °F 29.66 in SE 4.6 mph 1.5 mph 88% 0 in 0.00 W/m2
06:05 55.9 °F 52.4 °F 29.65 in ESE 4 mph 0.7 mph 88% 0 in 0.00 W/m2
06:10 55.9 °F 52.4 °F 29.64 in ESE 9.2 mph 2.8 mph 88% 0 in 0.00 W/m2
06:15 56.1 °F 52.9 °F 29.64 in East 8.1 mph 2.3 mph 89% 0 in 0.00 W/m2
06:20 56.2 °F 52.7 °F 29.64 in ESE 6.9 mph 3.3 mph 88% 0 in 0.00 W/m2
06:25 56.2 °F 52.7 °F 29.63 in East 6.9 mph 1.9 mph 88% 0 in 0.00 W/m2
06:30 56.3 °F 52.8 °F 29.64 in ESE 5.8 mph 2.3 mph 88% 0 in 0.00 W/m2
06:35 56.2 °F 52.7 °F 29.64 in SE 6.9 mph 2.5 mph 88% 0 in 0.00 W/m2
06:40 56.3 °F 53.1 °F 29.65 in SE 6.9 mph 3.3 mph 89% 0 in 0.00 W/m2
06:45 56.4 °F 53.2 °F 29.65 in ESE 6.9 mph 2.3 mph 89% 0 in 0.00 W/m2
06:50 56.7 °F 53.5 °F 29.65 in ESE 2.3 mph 0.3 mph 89% 0 in 0.00 W/m2
06:55 57.1 °F 53.9 °F 29.64 in SE 6.9 mph 4.7 mph 89% 0 in 0.00 W/m2
07:00 57.8 °F 54.3 °F 29.64 in SE 9.2 mph 5.8 mph 88% 0 in 0.00 W/m2
07:05 58.2 °F 54.3 °F 29.63 in SE 10.4 mph 6.3 mph 87% 0 in 0.00 W/m2
07:10 58.5 °F 54.6 °F 29.62 in ESE 9.2 mph 6.3 mph 87% 0 in 0.00 W/m2
07:15 58.8 °F 54.6 °F 29.60 in SE 11.5 mph 7 mph 86% 0 in 0.00 W/m2
07:20 59.1 °F 54.6 °F 29.60 in ESE 14 mph 8.8 mph 85% 0 in 0.00 W/m2
07:25 59.2 °F 54.7 °F 29.60 in SSE 10.4 mph 5.9 mph 85% 0 in 0.00 W/m2
07:30 59.3 °F 54.8 °F 29.59 in ESE 15 mph 9.6 mph 85% 0 in 0.00 W/m2
07:35 59.5 °F 55 °F 29.59 in SE 11.5 mph 7.7 mph 85% 0 in 0.00 W/m2
07:40 59.4 °F 54.9 °F 29.59 in ESE 18.4 mph 11.6 mph 85% 0 in 0.00 W/m2
07:45 59.3 °F 55.1 °F 29.59 in SE 17 mph 10 mph 86% 0 in 0.00 W/m2
07:50 59.1 °F 55.2 °F 29.59 in SE 21.9 mph 14.8 mph 87% 0 in 5.00 W/m2
07:55 59 °F 55.1 °F 29.57 in SE 13.8 mph 10.3 mph 87% 0 in 5.00 W/m2
08:00 58.8 °F 55.3 °F 29.56 in SE 23 mph 15.4 mph 88% 0 in 7.00 W/m2
08:05 58.6 °F 55.4 °F 29.54 in SE 21 mph 13.4 mph 89% 0 in 9.00 W/m2
08:10 58.5 °F 55.6 °F 29.54 in SE 19.6 mph 13.4 mph 90% 0 in 9.00 W/m2
08:15 58.5 °F 55.6 °F 29.54 in ESE 24.2 mph 17.7 mph 90% 0 in 12.00 W/m2
08:20 58.4 °F 55.5 °F 29.53 in East 18.4 mph 12.9 mph 90% 0.01 in 18.00 W/m2
08:25 58.4 °F 55.8 °F 29.52 in SSE 20.7 mph 15.5 mph 91% 0.01 in 16.00 W/m2
08:30 58.4 °F 56.1 °F 29.50 in SE 23 mph 17 mph 92% 0.01 in 16.00 W/m2
08:35 58.6 °F 56.6 °F 29.51 in SE 24.2 mph 15.5 mph 93% 0.01 in 21.00 W/m2
08:40 58.7 °F 56.7 °F 29.49 in SE 28.8 mph 22.9 mph 93% 0.01 in 23.00 W/m2
08:45 58.9 °F 56.6 °F 29.47 in East 27.6 mph 18.9 mph 92% 0.01 in 25.00 W/m2
08:50 58.9 °F 56.6 °F 29.47 in SE 25.3 mph 19 mph 92% 0.01 in 26.00 W/m2
08:55 58.9 °F 56.6 °F 29.45 in ESE 26.5 mph 18.5 mph 92% 0.01 in 26.00 W/m2
09:00 58.8 °F 56.8 °F 29.45 in SE 34.5 mph 23.5 mph 93% 0.01 in 28.00 W/m2
09:05 58.9 °F 56.9 °F 29.46 in ESE 26.5 mph 18.3 mph 93% 0.01 in 32.00 W/m2
09:10 59 °F 57 °F 29.42 in ESE 38 mph 30 mph 93% 0.01 in 42.00 W/m2
09:15 59.3 °F 57.3 °F 29.42 in SSE 31.1 mph 22.5 mph 93% 0.01 in 35.00 W/m2
09:20 59.3 °F 57.3 °F 29.43 in SE 25.3 mph 16.7 mph 93% 0 in 39.00 W/m2
09:25 59.5 °F 57.5 °F 29.42 in SE 34 mph 19.2 mph 93% 0 in 46.00 W/m2
09:30 59.6 °F 57.6 °F 29.43 in ESE 31.1 mph 20.1 mph 93% 0 in 60.00 W/m2
09:35 59.6 °F 57.6 °F 29.45 in SE 34.5 mph 23.4 mph 93% 0 in 63.00 W/m2
09:40 59.7 °F 57.7 °F 29.46 in SSE 36.8 mph 18.5 mph 93% 0 in 70.00 W/m2
09:45 59.8 °F 57.8 °F 29.46 in SE 25.3 mph 17.8 mph 93% 0 in 84.00 W/m2
09:50 59.9 °F 57.9 °F 29.48 in SE 26.5 mph 17.7 mph 93% 0 in 83.00 W/m2
09:55 59.9 °F 57.9 °F 29.48 in SSE 24.2 mph 16.6 mph 93% 0 in 79.00 W/m2
10:00 59.8 °F 57.8 °F 29.48 in SE 27 mph 15.5 mph 93% 0 in 74.00 W/m2
10:05 59.8 °F 57.8 °F 29.48 in SE 26.5 mph 16.2 mph 93% 0 in 67.00 W/m2
10:10 59.6 °F 57.6 °F 29.48 in SE 34 mph 16.5 mph 93% 0 in 79.00 W/m2
10:15 59.6 °F 57.6 °F 29.48 in SE 19.6 mph 14.2 mph 93% 0 in 67.00 W/m2
10:20 59.6 °F 57.6 °F 29.49 in SE 18.4 mph 12.2 mph 93% 0 in 51.00 W/m2
10:25 59.7 °F 57.7 °F 29.49 in SSE 23 mph 13.6 mph 93% 0 in 47.00 W/m2
10:30 59.7 °F 57.7 °F 29.49 in SSE 22 mph 15.8 mph 93% 0 in 37.00 W/m2
10:35 59.7 °F 57.7 °F 29.48 in SSE 20.7 mph 14.6 mph 93% 0 in 39.00 W/m2
10:40 59.7 °F 57.7 °F 29.47 in SE 19.6 mph 11.9 mph 93% 0 in 65.00 W/m2
10:45 59.9 °F 58.2 °F 29.48 in SE 16.1 mph 12.7 mph 94% 0 in 83.00 W/m2
10:50 60.1 °F 58.1 °F 29.47 in SSE 18.4 mph 13.5 mph 93% 0 in 90.00 W/m2
10:55 60.2 °F 58.2 °F 29.48 in SE 16.1 mph 12.8 mph 93% 0 in 91.00 W/m2
11:00 60.3 °F 58.3 °F 29.48 in SE 17.3 mph 10.2 mph 93% 0 in 81.00 W/m2
11:05 60.4 °F 58.4 °F 29.49 in SE 15 mph 11.7 mph 93% 0 in 46.00 W/m2
11:10 60.5 °F 58.5 °F 29.50 in SE 15 mph 10.4 mph 93% 0 in 44.00 W/m2
11:15 60.5 °F 58.5 °F 29.49 in SSE 16.1 mph 11.7 mph 93% 0 in 83.00 W/m2
11:20 60.7 °F 58.7 °F 29.49 in SSE 16.1 mph 10.5 mph 93% 0 in 86.00 W/m2
11:25 60.9 °F 58.9 °F 29.50 in SSE 19.6 mph 12.8 mph 93% 0 in 49.00 W/m2
11:30 60.8 °F 58.5 °F 29.50 in ESE 19.6 mph 12 mph 92% 0 in 16.00 W/m2
11:35 60.8 °F 58.8 °F 29.50 in SSE 11.5 mph 6.8 mph 93% 0 in 21.00 W/m2
11:40 60.9 °F 58.9 °F 29.50 in SSE 13.8 mph 9.7 mph 93% 0 in 39.00 W/m2
11:45 60.9 °F 58.9 °F 29.48 in SSE 15 mph 11.7 mph 93% 0 in 60.00 W/m2
11:50 61.1 °F 59.1 °F 29.50 in SSE 15 mph 10.6 mph 93% 0 in 28.00 W/m2
11:55 61.1 °F 58.8 °F 29.49 in SSE 18.4 mph 13.3 mph 92% 0 in 33.00 W/m2
12:00 61.2 °F 58.9 °F 29.49 in SSE 19.6 mph 11.8 mph 92% 0 in 25.00 W/m2
12:05 61.2 °F 58.9 °F 29.48 in SSE 19.6 mph 11.4 mph 92% 0 in 26.00 W/m2
12:10 61.3 °F 59 °F 29.48 in SSE 18.4 mph 13.5 mph 92% 0 in 28.00 W/m2
12:15 61.3 °F 59 °F 29.48 in SE 21.9 mph 16.1 mph 92% 0 in 35.00 W/m2
12:20 61.4 °F 59.1 °F 29.48 in SSE 16.1 mph 11 mph 92% 0 in 37.00 W/m2
12:25 61.5 °F 59.2 °F 29.48 in South 11.5 mph 9.3 mph 92% 0 in 21.00 W/m2
12:30 61.6 °F 59.3 °F 29.48 in SSE 14 mph 8.7 mph 92% 0 in 21.00 W/m2
12:35 61.6 °F 59.3 °F 29.48 in South 20 mph 7.9 mph 92% 0 in 19.00 W/m2
12:40 61.9 °F 59.2 °F 29.48 in SSW 13.8 mph 10.3 mph 91% 0 in 26.00 W/m2
12:45 62 °F 59.3 °F 29.47 in SSE 15 mph 9.3 mph 91% 0 in 26.00 W/m2
12:50 62.1 °F 59.4 °F 29.47 in South 12.7 mph 10.3 mph 91% 0 in 25.00 W/m2
12:55 62.1 °F 59.4 °F 29.47 in SSE 19.6 mph 14.5 mph 91% 0 in 30.00 W/m2
13:00 62.3 °F 59.6 °F 29.48 in SSE 16.1 mph 11.9 mph 91% 0 in 83.00 W/m2
13:05 62.4 °F 59.7 °F 29.47 in SSW 19.6 mph 12.3 mph 91% 0 in 60.00 W/m2
13:10 62.3 °F 59.6 °F 29.47 in South 17.3 mph 11.1 mph 91% 0 in 35.00 W/m2
13:15 62.2 °F 59.8 °F 29.47 in SSE 20 mph 11.9 mph 92% 0 in 49.00 W/m2
13:20 62.1 °F 59.7 °F 29.47 in South 18.4 mph 10 mph 92% 0 in 70.00 W/m2
13:25 62 °F 59.6 °F 29.47 in SSE 15 mph 11.6 mph 92% 0 in 30.00 W/m2
13:30 61.9 °F 59.9 °F 29.47 in SSE 13.8 mph 9 mph 93% 0.01 in 76.00 W/m2
13:35 62 °F 60 °F 29.47 in SSE 15 mph 7.2 mph 93% 0.01 in 90.00 W/m2
13:40 62.2 °F 60.2 °F 29.47 in SSW 15 mph 10.8 mph 93% 0.01 in 192.00 W/m2
13:45 62.6 °F 60.5 °F 29.47 in South 16.1 mph 9.3 mph 93% 0.01 in 246.00 W/m2
13:50 63.2 °F 61.1 °F 29.46 in SSW 18.4 mph 11.8 mph 93% 0.01 in 313.00 W/m2
13:55 63.4 °F 61 °F 29.47 in South 16.1 mph 7.8 mph 92% 0.01 in 192.00 W/m2
14:00 63.4 °F 60.7 °F 29.46 in SSW 19.6 mph 12.3 mph 91% 0.01 in 279.00 W/m2
14:05 63.5 °F 60.8 °F 29.47 in South 19.6 mph 13.2 mph 91% 0.01 in 179.00 W/m2
14:10 63.7 °F 60.7 °F 29.46 in South 19.6 mph 9.7 mph 90% 0.01 in 283.00 W/m2
14:15 64 °F 61 °F 29.46 in SSE 13 mph 7.7 mph 90% 0.01 in 209.00 W/m2
14:20 64.2 °F 60.9 °F 29.46 in South 17.3 mph 9.9 mph 89% 0.01 in 132.00 W/m2
14:25 64.2 °F 60.6 °F 29.46 in South 14 mph 8.1 mph 88% 0.01 in 86.00 W/m2
14:30 64.4 °F 60.8 °F 29.46 in South 12.7 mph 8.1 mph 88% 0 in 592.00 W/m2
14:35 65.2 °F 61.6 °F 29.46 in SSE 18 mph 9.5 mph 88% 0 in 631.00 W/m2
14:40 65.6 °F 61.3 °F 29.46 in South 19.6 mph 12 mph 86% 0 in 541.00 W/m2
14:45 65.9 °F 61.3 °F 29.46 in SSE 15 mph 7.6 mph 85% 0 in 584.00 W/m2
14:50 66.1 °F 61.1 °F 29.46 in SW 19 mph 7.3 mph 84% 0 in 169.00 W/m2
14:55 66.3 °F 60.6 °F 29.46 in SSW 13.8 mph 8 mph 82% 0 in 265.00 W/m2
15:00 66.4 °F 60.4 °F 29.46 in SSW 20.7 mph 11.7 mph 81% 0 in 531.00 W/m2
15:05 66.3 °F 59.9 °F 29.46 in SSW 17 mph 9.3 mph 80% 0 in 508.00 W/m2
15:10 66.5 °F 59.8 °F 29.45 in SW 15 mph 7.1 mph 79% 0 in 445.00 W/m2
15:15 66.8 °F 60.1 °F 29.46 in South 18 mph 8.4 mph 79% 0 in 446.00 W/m2
15:20 66.4 °F 59.3 °F 29.45 in SSW 13.8 mph 7.4 mph 78% 0 in 153.00 W/m2
15:25 66.6 °F 59.5 °F 29.46 in South 11.5 mph 6.9 mph 78% 0 in 431.00 W/m2
15:30 66.9 °F 59.8 °F 29.46 in South 8.1 mph 6.2 mph 78% 0 in 404.00 W/m2
15:35 66.9 °F 59.8 °F 29.45 in SSE 10.4 mph 5.9 mph 78% 0 in 418.00 W/m2
15:40 66.8 °F 59 °F 29.45 in South 18.4 mph 11.1 mph 76% 0 in 90.00 W/m2
15:45 66.5 °F 58.3 °F 29.45 in SSW 13.8 mph 7.5 mph 75% 0 in 213.00 W/m2
15:50 66.5 °F 59.1 °F 29.46 in WSW 13 mph 5.9 mph 77% 0 in 120.00 W/m2
15:55 66.9 °F 58.7 °F 29.45 in South 18.4 mph 9.9 mph 75% 0 in 394.00 W/m2
16:00 67.1 °F 58.5 °F 29.45 in South 17.3 mph 8.5 mph 74% 0 in 125.00 W/m2
16:05 66.7 °F 58.5 °F 29.45 in South 9.2 mph 5.6 mph 75% 0 in 118.00 W/m2
16:10 66.5 °F 58.7 °F 29.46 in SSW 19.6 mph 10.7 mph 76% 0 in 84.00 W/m2
16:15 66.6 °F 56.9 °F 29.46 in SW 12.7 mph 7.9 mph 71% 0 in 346.00 W/m2
16:20 67 °F 56.1 °F 29.46 in SSW 18.4 mph 9.6 mph 68% 0 in 204.00 W/m2
16:25 67.4 °F 56.1 °F 29.46 in WSW 11.5 mph 6.9 mph 67% 0 in 290.00 W/m2
16:30 67.5 °F 55.3 °F 29.45 in SSW 18.4 mph 9.3 mph 65% 0 in 265.00 W/m2
16:35 67.3 °F 52.9 °F 29.46 in SSW 17.3 mph 9.8 mph 60% 0 in 253.00 W/m2
16:40 67.5 °F 53.1 °F 29.46 in SW 17 mph 6 mph 60% 0 in 223.00 W/m2
16:45 67.4 °F 53.5 °F 29.47 in SSW 20.7 mph 10.3 mph 61% 0 in 230.00 W/m2
16:50 67.3 °F 53.4 °F 29.47 in WSW 10.4 mph 6.6 mph 61% 0 in 165.00 W/m2
16:55 66.8 °F 51.1 °F 29.47 in SW 19.6 mph 12.8 mph 57% 0 in 134.00 W/m2
17:00 66.2 °F 50 °F 29.48 in SW 16.1 mph 12.1 mph 56% 0 in 40.00 W/m2
17:05 65.8 °F 49.2 °F 29.48 in South 15 mph 7.6 mph 55% 0 in 105.00 W/m2
17:10 65.2 °F 48.1 °F 29.49 in WSW 21 mph 12.8 mph 54% 0 in 86.00 W/m2
17:15 64.8 °F 48.2 °F 29.49 in SW 16.1 mph 10 mph 55% 0 in 72.00 W/m2
17:20 64.4 °F 47.4 °F 29.49 in SW 19.6 mph 12.4 mph 54% 0 in 58.00 W/m2
17:25 63.9 °F 47.9 °F 29.50 in SW 15 mph 6.3 mph 56% 0 in 46.00 W/m2
17:30 63.4 °F 46.9 °F 29.50 in SW 20.7 mph 10.9 mph 55% 0 in 26.00 W/m2
17:35 62.8 °F 46.4 °F 29.50 in North 15 mph 10 mph 55% 0 in 21.00 W/m2
17:40 62.5 °F 46.1 °F 29.50 in WSW 11.5 mph 6.9 mph 55% 0 in 18.00 W/m2
17:45 62.1 °F 45.7 °F 29.51 in SSW 10.4 mph 6.1 mph 55% 0 in 14.00 W/m2
17:50 61.7 °F 45.4 °F 29.50 in SSW 19.6 mph 11.2 mph 55% 0 in 11.00 W/m2
17:55 61.5 °F 45.2 °F 29.51 in WSW 15 mph 8 mph 55% 0 in 7.00 W/m2
18:00 61.1 °F 45.3 °F 29.51 in SSW 11.5 mph 9.1 mph 56% 0 in 0.00 W/m2
18:05 60.9 °F 45.1 °F 29.52 in SSW 18.4 mph 9.4 mph 56% 0 in 0.00 W/m2
18:10 60.6 °F 45.3 °F 29.52 in WSW 10.4 mph 7.3 mph 57% 0 in 0.00 W/m2
18:15 60.5 °F 45.2 °F 29.52 in SW 14 mph 8.3 mph 57% 0 in 0.00 W/m2
18:20 60.3 °F 45 °F 29.53 in WSW 13.8 mph 9.7 mph 57% 0 in 0.00 W/m2
18:25 60.1 °F 45.3 °F 29.53 in SW 20.7 mph 10.9 mph 58% 0 in 0.00 W/m2
18:30 59.9 °F 45.1 °F 29.53 in WSW 11.5 mph 6.4 mph 58% 0 in 0.00 W/m2
18:35 59.7 °F 45.3 °F 29.54 in WSW 15 mph 6.6 mph 59% 0 in 0.00 W/m2
18:40 59.5 °F 45.2 °F 29.54 in SW 13.8 mph 9.5 mph 59% 0 in 0.00 W/m2
18:45 59.4 °F 45.1 °F 29.55 in SW 17.3 mph 12 mph 59% 0 in 0.00 W/m2
18:50 59.2 °F 45.3 °F 29.55 in WSW 17.3 mph 11.3 mph 60% 0 in 0.00 W/m2
18:55 59 °F 45.1 °F 29.56 in South 19.6 mph 10.8 mph 60% 0 in 0.00 W/m2
19:00 58.7 °F 44.8 °F 29.57 in SSW 19.6 mph 12.9 mph 60% 0 in 0.00 W/m2
19:05 58.4 °F 44.6 °F 29.57 in West 13.8 mph 9.2 mph 60% 0 in 0.00 W/m2
19:10 58.2 °F 44.4 °F 29.57 in WSW 13.8 mph 8.3 mph 60% 0 in 0.00 W/m2
19:15 57.8 °F 44.4 °F 29.57 in WSW 11.5 mph 6.9 mph 61% 0 in 0.00 W/m2
19:20 57.5 °F 44.1 °F 29.57 in SW 19.6 mph 12.1 mph 61% 0 in 0.00 W/m2
19:25 57.3 °F 44 °F 29.57 in SSW 11.5 mph 7.7 mph 61% 0 in 0.00 W/m2
19:30 57 °F 43.7 °F 29.58 in WSW 14 mph 9.1 mph 61% 0 in 0.00 W/m2
19:35 56.9 °F 44 °F 29.58 in SW 17 mph 11.3 mph 62% 0 in 0.00 W/m2
19:40 56.7 °F 44.2 °F 29.58 in SW 13.8 mph 8.6 mph 63% 0 in 0.00 W/m2
19:45 56.4 °F 44 °F 29.59 in SSW 12.7 mph 7.7 mph 63% 0 in 0.00 W/m2
19:50 56.2 °F 44.2 °F 29.59 in WSW 16.1 mph 9.4 mph 64% 0 in 0.00 W/m2
19:55 56 °F 44 °F 29.59 in SW 20.7 mph 11.9 mph 64% 0 in 0.00 W/m2
20:00 55.9 °F 43.9 °F 29.59 in West 11.5 mph 8.9 mph 64% 0 in 0.00 W/m2
20:05 55.8 °F 43.8 °F 29.60 in WSW 15 mph 8.5 mph 64% 0 in 0.00 W/m2
20:10 55.6 °F 43.6 °F 29.60 in SW 15 mph 7.1 mph 64% 0 in 0.00 W/m2
20:15 55.4 °F 43.4 °F 29.60 in SW 16.1 mph 11.4 mph 64% 0 in 0.00 W/m2
20:20 55.3 °F 43.3 °F 29.60 in SW 13 mph 8.1 mph 64% 0 in 0.00 W/m2
20:25 55.1 °F 43.5 °F 29.60 in SW 9.2 mph 5.2 mph 65% 0 in 0.00 W/m2
20:30 54.7 °F 43.6 °F 29.60 in SSW 10.4 mph 4.6 mph 66% 0 in 0.00 W/m2
20:35 54.4 °F 43.7 °F 29.60 in SSW 11.5 mph 6.5 mph 67% 0 in 0.00 W/m2
20:40 54.1 °F 43.4 °F 29.61 in SSW 6.9 mph 3.5 mph 67% 0 in 0.00 W/m2
20:45 53.9 °F 42.8 °F 29.61 in SW 5.8 mph 3.6 mph 66% 0 in 0.00 W/m2
20:50 53.8 °F 42.7 °F 29.61 in West 8.1 mph 5.3 mph 66% 0 in 0.00 W/m2
20:55 53.7 °F 42.6 °F 29.61 in SW 11.5 mph 5.1 mph 66% 0 in 0.00 W/m2
21:00 53.6 °F 42.1 °F 29.61 in North 10.4 mph 5.1 mph 65% 0 in 0.00 W/m2
21:05 53.5 °F 42 °F 29.61 in SSW 10.4 mph 5.5 mph 65% 0 in 0.00 W/m2
21:10 53.4 °F 41.9 °F 29.61 in SW 12.7 mph 4.1 mph 65% 0 in 0.00 W/m2
21:15 53.4 °F 41.9 °F 29.61 in SW 9.2 mph 5.1 mph 65% 0 in 0.00 W/m2
21:20 53.5 °F 41.6 °F 29.61 in SSE 6.9 mph 4.2 mph 64% 0 in 0.00 W/m2
21:25 53.5 °F 41.6 °F 29.61 in SW 15 mph 7.6 mph 64% 0 in 0.00 W/m2
21:30 53.5 °F 41.6 °F 29.61 in SSW 9.2 mph 6.2 mph 64% 0 in 0.00 W/m2
21:35 53.3 °F 41.8 °F 29.61 in SSW 15 mph 5.9 mph 65% 0 in 0.00 W/m2
21:40 53.3 °F 41.4 °F 29.60 in South 13 mph 8.1 mph 64% 0 in 0.00 W/m2
21:45 53.3 °F 41.4 °F 29.61 in SSW 10.4 mph 5 mph 64% 0 in 0.00 W/m2
21:50 53.3 °F 41.4 °F 29.60 in North 11.5 mph 5.7 mph 64% 0 in 0.00 W/m2
21:55 53.1 °F 41.6 °F 29.60 in SSW 6.9 mph 4.3 mph 65% 0 in 0.00 W/m2
22:00 52.9 °F 41.4 °F 29.60 in South 11.5 mph 6.2 mph 65% 0 in 0.00 W/m2
22:05 52.8 °F 41.4 °F 29.60 in South 8.1 mph 4.1 mph 65% 0 in 0.00 W/m2
22:10 52.8 °F 41.4 °F 29.60 in South 11.5 mph 6.3 mph 65% 0 in 0.00 W/m2
22:15 52.8 °F 41.4 °F 29.60 in South 13 mph 5.9 mph 65% 0 in 0.00 W/m2
22:20 52.7 °F 41.3 °F 29.60 in SSW 11.5 mph 5.8 mph 65% 0 in 0.00 W/m2
22:25 52.7 °F 41.7 °F 29.60 in SSW 10.4 mph 5.4 mph 66% 0 in 0.00 W/m2
22:30 52.6 °F 41.6 °F 29.60 in SSW 8.1 mph 4 mph 66% 0 in 0.00 W/m2
22:35 52.5 °F 41.5 °F 29.60 in SSW 5.8 mph 3.1 mph 66% 0 in 0.00 W/m2
22:40 52.4 °F 41.4 °F 29.60 in WSW 11 mph 4.6 mph 66% 0 in 0.00 W/m2
22:45 52.3 °F 41.7 °F 29.60 in SSW 12 mph 4.1 mph 67% 0 in 0.00 W/m2
22:50 52.1 °F 41.5 °F 29.60 in South 6.9 mph 5 mph 67% 0 in 0.00 W/m2
22:55 51.9 °F 41.7 °F 29.60 in South 8.1 mph 3.7 mph 68% 0 in 0.00 W/m2
23:00 51.7 °F 41.5 °F 29.60 in SSW 6.9 mph 3.6 mph 68% 0 in 0.00 W/m2
23:05 51.5 °F 41.7 °F 29.60 in SSW 10.4 mph 5 mph 69% 0 in 0.00 W/m2
23:10 51.4 °F 41.6 °F 29.60 in South 9.2 mph 6.1 mph 69% 0 in 0.00 W/m2
23:15 51.3 °F 41.5 °F 29.59 in South 8.1 mph 3.7 mph 69% 0 in 0.00 W/m2
23:20 51.4 °F 41.6 °F 29.59 in SSW 9.2 mph 4.9 mph 69% 0 in 0.00 W/m2
23:25 51.4 °F 41.6 °F 29.59 in SSW 5.8 mph 2.8 mph 69% 0 in 0.00 W/m2
23:30 51.4 °F 41.6 °F 29.59 in SSW 9.2 mph 4.9 mph 69% 0 in 0.00 W/m2
23:35 51.4 °F 41.6 °F 29.59 in SSW 11.5 mph 4.2 mph 69% 0 in 0.00 W/m2
23:40 51.2 °F 41.7 °F 29.59 in SSW 11.5 mph 5.2 mph 70% 0 in 0.00 W/m2
23:45 50.8 °F 41.7 °F 29.59 in SSW 6.9 mph 3.8 mph 71% 0 in 0.00 W/m2
23:50 50.6 °F 41.5 °F 29.59 in South 10.4 mph 4.4 mph 71% 0 in 0.00 W/m2
23:55 50.5 °F 41.8 °F 29.59 in South 11.5 mph 5.5 mph 72% 0 in 0.00 W/m2
Bourbonnais, Illinois, USA
Compliments of Weather Underground - 4 mb